EZS1369 LSGG-LECO

Flight info

Callsign EZS1369
Flight time 1h 53m
Altitude 31000
Route DEPUL T544 LSE DCT RUSIT DCT ESIDA DCT LERGA/N0437F370 DCT MINSO DCT NARAK DCT AGN DCT PIPOR DCT PPN DCT MIRPO DCT DGO N725 SUSOS/N0436F360 DCT LOMDA
Aircraft A320/M-SDE2E3FGHIJ1RWXYZ/LB1

Departure

Time 2026-04-17 07:07
Airport Geneva International Airport (LSGG)

Arrival

Time 2026-04-17 09:00
Airport A Coruña Airport (LECO)
Time Latitude Longitude Altitude Speed Heading
2026-04-17 06:53 46.23156 6.10741 1400 ft 0 kts 135°
2026-04-17 06:58 46.23159 6.10736 1402 ft 2 kts 135°
2026-04-17 06:58 46.23167 6.10724 1402 ft 2 kts 135°
2026-04-17 06:59 46.23180 6.10709 1404 ft 2 kts 113°
2026-04-17 06:59 46.23181 6.10684 1402 ft 0 kts 44°
2026-04-17 07:00 46.23181 6.10685 1393 ft 1 kts 44°
2026-04-17 07:01 46.23197 6.10707 1405 ft 6 kts 44°
2026-04-17 07:01 46.23241 6.10764 1395 ft 11 kts 33°
2026-04-17 07:01 46.23329 6.10814 1395 ft 16 kts 31°
2026-04-17 07:01 46.23416 6.10934 1393 ft 18 kts 45°
2026-04-17 07:02 46.23507 6.11068 1404 ft 19 kts 45°
2026-04-17 07:02 46.23601 6.11157 1392 ft 15 kts 340°
2026-04-17 07:02 46.23688 6.11067 1388 ft 15 kts
2026-04-17 07:02 46.23744 6.11144 1380 ft 13 kts 45°
2026-04-17 07:03 46.23829 6.11266 1378 ft 21 kts 45°
2026-04-17 07:03 46.23938 6.11423 1373 ft 24 kts 45°
2026-04-17 07:03 46.24058 6.11599 1369 ft 25 kts 45°
2026-04-17 07:03 46.24184 6.11784 1364 ft 27 kts 45°
2026-04-17 07:04 46.24299 6.11952 1363 ft 22 kts 45°
2026-04-17 07:04 46.24401 6.12103 1369 ft 20 kts 45°
2026-04-17 07:04 46.24495 6.12240 1372 ft 19 kts 45°
2026-04-17 07:04 46.24592 6.12383 1370 ft 21 kts 46°
2026-04-17 07:05 46.24705 6.12547 1363 ft 26 kts 45°
2026-04-17 07:05 46.24839 6.12688 1363 ft 23 kts 18°
2026-04-17 07:05 46.24961 6.12726 1369 ft 14 kts 348°
2026-04-17 07:05 46.24989 6.12636 1371 ft 9 kts 234°
2026-04-17 07:06 46.24914 6.12521 1372 ft 35 kts 226°
2026-04-17 07:06 46.24563 6.12008 1372 ft 104 kts 225°
2026-04-17 07:06 46.23923 6.11066 1378 ft 156 kts 225°
2026-04-17 07:06 46.23101 6.09844 1760 ft 168 kts 226°
2026-04-17 07:07 46.22306 6.08635 2488 ft 169 kts 226°
2026-04-17 07:07 46.21447 6.07366 2909 ft 187 kts 225°
2026-04-17 07:07 46.20474 6.05950 3220 ft 209 kts 225°
2026-04-17 07:07 46.19382 6.04367 3603 ft 231 kts 225°
2026-04-17 07:08 46.18237 6.02709 4233 ft 244 kts 225°
2026-04-17 07:08 46.16985 6.00892 4703 ft 264 kts 225°
2026-04-17 07:08 46.15675 5.98982 5494 ft 270 kts 225°
2026-04-17 07:08 46.14360 5.97024 6417 ft 272 kts 226°
2026-04-17 07:09 46.13092 5.94983 7253 ft 275 kts 236°
2026-04-17 07:09 46.12133 5.92578 8078 ft 277 kts 239°
2026-04-17 07:09 46.11112 5.90205 8927 ft 280 kts 237°
2026-04-17 07:09 46.10041 5.87876 9756 ft 282 kts 236°
2026-04-17 07:10 46.08931 5.85517 10529 ft 287 kts 236°
2026-04-17 07:10 46.07767 5.83040 10807 ft 310 kts 236°
2026-04-17 07:10 46.06539 5.80410 11180 ft 326 kts 236°
2026-04-17 07:10 46.05265 5.77666 11820 ft 332 kts 237°
2026-04-17 07:11 46.03978 5.74870 12517 ft 336 kts 237°
2026-04-17 07:11 46.02678 5.72032 13193 ft 341 kts 238°
2026-04-17 07:11 46.01365 5.69169 13863 ft 345 kts 238°
2026-04-17 07:11 46.00047 5.66304 14484 ft 349 kts 238°
2026-04-17 07:12 45.98694 5.63368 15076 ft 352 kts 238°
2026-04-17 07:12 45.97334 5.60416 15697 ft 355 kts 238°
2026-04-17 07:12 45.95969 5.57413 16324 ft 358 kts 239°
2026-04-17 07:12 45.94639 5.54404 16944 ft 361 kts 239°
2026-04-17 07:13 45.93299 5.51330 17572 ft 364 kts 239°
2026-04-17 07:13 45.91952 5.48233 18186 ft 367 kts 239°
2026-04-17 07:13 45.90584 5.45108 18738 ft 370 kts 239°
2026-04-17 07:13 45.89203 5.41967 19276 ft 372 kts 239°
2026-04-17 07:14 45.87830 5.38852 19806 ft 374 kts 239°
2026-04-17 07:14 45.86427 5.35684 20337 ft 376 kts 239°
2026-04-17 07:14 45.85017 5.32508 20878 ft 378 kts 239°
2026-04-17 07:14 45.83600 5.29325 21389 ft 381 kts 239°
2026-04-17 07:15 45.82168 5.26109 21894 ft 383 kts 239°
2026-04-17 07:15 45.80726 5.22874 22405 ft 385 kts 239°
2026-04-17 07:15 45.79280 5.19629 22892 ft 387 kts 239°
2026-04-17 07:15 45.77828 5.16366 23382 ft 389 kts 239°
2026-04-17 07:16 45.76364 5.13088 23851 ft 392 kts 239°
2026-04-17 07:16 45.74889 5.09793 24246 ft 394 kts 239°
2026-04-17 07:16 45.73451 5.06455 24676 ft 394 kts 241°
2026-04-17 07:16 45.72089 5.03042 25073 ft 396 kts 242°
2026-04-17 07:17 45.70766 4.99566 25457 ft 397 kts 243°
2026-04-17 07:17 45.69456 4.96073 25826 ft 399 kts 243°
2026-04-17 07:17 45.66803 4.89062 26554 ft 404 kts 243°
2026-04-17 07:18 45.65482 4.85509 26884 ft 406 kts 244°
2026-04-17 07:18 45.64196 4.81904 27247 ft 408 kts 245°
2026-04-17 07:18 45.62924 4.78257 27595 ft 410 kts 245°
2026-04-17 07:18 45.61656 4.74601 27950 ft 412 kts 245°
2026-04-17 07:19 45.60380 4.70928 28296 ft 414 kts 245°
2026-04-17 07:19 45.59102 4.67284 28649 ft 416 kts 245°
2026-04-17 07:19 45.57792 4.63587 29010 ft 417 kts 245°
2026-04-17 07:19 45.56470 4.59882 29349 ft 419 kts 245°
2026-04-17 07:20 45.55146 4.56181 29671 ft 421 kts 245°
2026-04-17 07:20 45.53807 4.52439 29990 ft 423 kts 245°
2026-04-17 07:20 45.52465 4.48692 30300 ft 425 kts 245°
2026-04-17 07:20 45.51116 4.44925 30574 ft 427 kts 245°
2026-04-17 07:21 45.49762 4.41151 30840 ft 428 kts 245°
2026-04-17 07:21 45.48401 4.37362 31086 ft 430 kts 245°
2026-04-17 07:21 45.47037 4.33572 31219 ft 429 kts 245°
2026-04-17 07:21 45.45697 4.29860 31245 ft 414 kts 245°
2026-04-17 07:22 45.43122 4.22745 31234 ft 403 kts 245°
2026-04-17 07:22 45.40567 4.15674 31246 ft 401 kts 245°
2026-04-17 07:23 45.38012 4.08622 31241 ft 401 kts 245°
2026-04-17 07:23 45.35451 4.01569 31239 ft 401 kts 245°
2026-04-17 07:24 45.32852 3.94447 31406 ft 412 kts 245°
2026-04-17 07:24 45.31522 3.90813 31525 ft 418 kts 245°
2026-04-17 07:24 45.30173 3.87134 31652 ft 423 kts 245°
2026-04-17 07:25 45.28806 3.83410 31810 ft 426 kts 245°
2026-04-17 07:25 45.27433 3.79670 32124 ft 426 kts 245°
2026-04-17 07:25 45.26055 3.75948 32468 ft 426 kts 243°
2026-04-17 07:25 45.24445 3.72407 32814 ft 427 kts 238°
2026-04-17 07:26 45.22743 3.68959 33176 ft 425 kts 238°
2026-04-17 07:26 45.21047 3.65521 33541 ft 424 kts 238°
2026-04-17 07:26 45.19378 3.62139 33898 ft 423 kts 238°
2026-04-17 07:26 45.17694 3.58726 34257 ft 422 kts 238°
2026-04-17 07:27 45.16015 3.55324 34561 ft 421 kts 238°
2026-04-17 07:27 45.14328 3.51913 34846 ft 420 kts 238°
2026-04-17 07:27 45.12650 3.48525 35085 ft 420 kts 238°
2026-04-17 07:27 45.10969 3.45130 35312 ft 420 kts 238°
2026-04-17 07:28 45.09292 3.41745 35557 ft 420 kts 238°
2026-04-17 07:28 45.07612 3.38359 35789 ft 420 kts 238°
2026-04-17 07:28 45.05931 3.34979 36034 ft 420 kts 238°
2026-04-17 07:28 45.04251 3.31600 36271 ft 419 kts 238°
2026-04-17 07:29 45.02594 3.28273 36504 ft 419 kts 238°
2026-04-17 07:29 45.00914 3.24912 36729 ft 418 kts 238°
2026-04-17 07:29 44.99230 3.21551 36952 ft 418 kts 238°
2026-04-17 07:29 44.97547 3.18197 37159 ft 418 kts 237°
2026-04-17 07:30 44.94180 3.11491 37228 ft 418 kts 238°
2026-04-17 07:30 44.90818 3.04800 37230 ft 418 kts 237°
2026-04-17 07:31 44.87455 2.98120 37228 ft 417 kts 237°
2026-04-17 07:31 44.84127 2.91490 37228 ft 417 kts 238°
2026-04-17 07:32 44.80941 2.84676 37218 ft 416 kts 240°
2026-04-17 07:32 44.77847 2.77793 37221 ft 416 kts 240°
2026-04-17 07:33 44.74720 2.70925 37224 ft 416 kts 240°
2026-04-17 07:33 44.71558 2.64109 37229 ft 416 kts 239°
2026-04-17 07:34 44.68384 2.57302 37237 ft 415 kts 239°
2026-04-17 07:34 44.65218 2.50508 37230 ft 415 kts 240°
2026-04-17 07:35 44.62064 2.43734 37230 ft 414 kts 239°
2026-04-17 07:35 44.58900 2.36966 37218 ft 414 kts 240°
2026-04-17 07:36 44.55757 2.30252 37219 ft 414 kts 240°
2026-04-17 07:36 44.52587 2.23509 37227 ft 414 kts 240°
2026-04-17 07:37 44.49412 2.16772 37228 ft 413 kts 240°
2026-04-17 07:37 44.46249 2.10057 37228 ft 413 kts 240°
2026-04-17 07:38 44.43082 2.03366 37230 ft 412 kts 239°
2026-04-17 07:38 44.39906 1.96688 37211 ft 412 kts 240°
2026-04-17 07:39 44.36737 1.90011 37212 ft 412 kts 240°
2026-04-17 07:39 44.33582 1.83374 37220 ft 412 kts 240°
2026-04-17 07:40 44.30406 1.76719 37224 ft 411 kts 240°
2026-04-17 07:40 44.27258 1.70044 37222 ft 411 kts 240°
2026-04-17 07:41 44.24193 1.63326 37216 ft 410 kts 241°
2026-04-17 07:41 44.21134 1.56606 37210 ft 410 kts 241°
2026-04-17 07:42 44.18067 1.49952 37216 ft 410 kts 241°
2026-04-17 07:42 44.14972 1.43278 37220 ft 409 kts 240°
2026-04-17 07:43 44.11884 1.36625 37219 ft 409 kts 240°
2026-04-17 07:43 44.08790 1.29978 37218 ft 408 kts 240°
2026-04-17 07:44 44.05727 1.23387 37218 ft 408 kts 240°
2026-04-17 07:44 44.02647 1.16762 37217 ft 408 kts 240°
2026-04-17 07:45 44.00056 1.11212 37211 ft 408 kts 240°
2026-04-17 07:45 43.96983 1.04656 37218 ft 407 kts 240°
2026-04-17 07:46 43.93885 0.98065 37219 ft 407 kts 240°
2026-04-17 07:46 43.90781 0.91481 37220 ft 407 kts 240°
2026-04-17 07:47 43.87707 0.84901 37222 ft 406 kts 242°
2026-04-17 07:47 43.84808 0.78199 37221 ft 405 kts 243°
2026-04-17 07:48 43.81997 0.71511 37213 ft 405 kts 243°
2026-04-17 07:48 43.79137 0.64801 37214 ft 404 kts 242°
2026-04-17 07:49 43.76245 0.58127 37220 ft 404 kts 242°
2026-04-17 07:49 43.73344 0.51462 37221 ft 404 kts 242°
2026-04-17 07:50 43.70448 0.44805 37222 ft 404 kts 242°
2026-04-17 07:50 43.67556 0.38149 37226 ft 404 kts 242°
2026-04-17 07:51 43.64662 0.31502 37240 ft 404 kts 242°
2026-04-17 07:51 43.61762 0.24866 37224 ft 404 kts 242°
2026-04-17 07:52 43.58847 0.18243 37226 ft 404 kts 242°
2026-04-17 07:52 43.55928 0.11622 37219 ft 404 kts 242°
2026-04-17 07:53 43.53012 0.05001 37222 ft 404 kts 242°
2026-04-17 07:53 43.50094 -0.01620 37222 ft 404 kts 242°
2026-04-17 07:54 43.47186 -0.08199 37224 ft 404 kts 241°
2026-04-17 07:54 43.44256 -0.14805 37222 ft 404 kts 241°
2026-04-17 07:55 43.41323 -0.21403 37206 ft 404 kts 241°
2026-04-17 07:55 43.38375 -0.28005 37210 ft 405 kts 241°
2026-04-17 07:56 43.35429 -0.34601 37209 ft 405 kts 241°
2026-04-17 07:56 43.32482 -0.41201 37206 ft 405 kts 241°
2026-04-17 07:57 43.29537 -0.47765 37208 ft 406 kts 241°
2026-04-17 07:57 43.26569 -0.54352 37211 ft 406 kts 241°
2026-04-17 07:58 43.23609 -0.60929 37215 ft 406 kts 241°
2026-04-17 07:58 43.20638 -0.67514 37201 ft 406 kts 241°
2026-04-17 07:59 43.17660 -0.74087 37195 ft 406 kts 241°
2026-04-17 07:59 43.14676 -0.80656 37190 ft 406 kts 240°
2026-04-17 08:00 43.11687 -0.87218 37197 ft 406 kts 240°
2026-04-17 08:00 43.08702 -0.93778 37191 ft 406 kts 240°
2026-04-17 08:01 43.05714 -1.00333 37194 ft 406 kts 240°
2026-04-17 08:01 43.02717 -1.06878 37194 ft 406 kts 240°
2026-04-17 08:02 42.99707 -1.13416 37172 ft 406 kts 240°
2026-04-17 08:02 42.96716 -1.19918 37180 ft 406 kts 240°
2026-04-17 08:03 42.93700 -1.26464 37184 ft 406 kts 240°
2026-04-17 08:03 42.90687 -1.32984 37185 ft 406 kts 240°
2026-04-17 08:04 42.87677 -1.39500 37201 ft 406 kts 240°
2026-04-17 08:04 42.84660 -1.46008 37209 ft 406 kts 239°
2026-04-17 08:05 42.81631 -1.52513 37218 ft 407 kts 240°
2026-04-17 08:05 42.78600 -1.59016 37241 ft 406 kts 239°
2026-04-17 08:06 42.75565 -1.65509 37230 ft 406 kts 239°
2026-04-17 08:06 42.72924 -1.72239 37238 ft 402 kts 252°
2026-04-17 08:07 42.71301 -1.79469 37226 ft 402 kts 254°
2026-04-17 08:07 42.69667 -1.86731 37215 ft 402 kts 253°
2026-04-17 08:08 42.68023 -1.93984 37203 ft 401 kts 253°
2026-04-17 08:08 42.66376 -2.01228 37208 ft 401 kts 253°
2026-04-17 08:09 42.64728 -2.08467 37212 ft 401 kts 253°
2026-04-17 08:09 42.63075 -2.15709 37219 ft 401 kts 253°
2026-04-17 08:10 42.61369 -2.22916 37221 ft 401 kts 252°
2026-04-17 08:10 42.59597 -2.30099 37230 ft 401 kts 252°
2026-04-17 08:11 42.57838 -2.37261 37218 ft 400 kts 252°
2026-04-17 08:11 42.56089 -2.44443 37219 ft 400 kts 252°
2026-04-17 08:12 42.54336 -2.51618 37219 ft 401 kts 252°
2026-04-17 08:12 42.52574 -2.58785 37217 ft 401 kts 252°
2026-04-17 08:13 42.50823 -2.65901 37216 ft 401 kts 252°
2026-04-17 08:14 42.48172 -2.76646 37215 ft 400 kts 251°
2026-04-17 08:14 42.46399 -2.83793 37211 ft 400 kts 253°
2026-04-17 08:15 42.45747 -2.91236 37209 ft 401 kts 272°
2026-04-17 08:15 42.46518 -2.98737 37204 ft 402 kts 276°
2026-04-17 08:16 42.47333 -3.06239 37207 ft 403 kts 276°
2026-04-17 08:16 42.48149 -3.13762 37198 ft 403 kts 276°
2026-04-17 08:17 42.48948 -3.21237 37203 ft 403 kts 276°
2026-04-17 08:17 42.49750 -3.28758 37210 ft 403 kts 276°
2026-04-17 08:18 42.50553 -3.36299 37218 ft 404 kts 276°
2026-04-17 08:18 42.51349 -3.43786 37238 ft 404 kts 275°
2026-04-17 08:19 42.52155 -3.51392 37239 ft 405 kts 275°
2026-04-17 08:19 42.52937 -3.58906 37239 ft 405 kts 275°
2026-04-17 08:20 42.53716 -3.66464 37236 ft 405 kts 275°
2026-04-17 08:20 42.54497 -3.74020 37230 ft 405 kts 275°
2026-04-17 08:21 42.55275 -3.81589 37219 ft 405 kts 275°
2026-04-17 08:21 42.56040 -3.89150 37225 ft 405 kts 275°
2026-04-17 08:22 42.56803 -3.96710 37219 ft 405 kts 275°
2026-04-17 08:22 42.57566 -4.04279 37218 ft 405 kts 275°
2026-04-17 08:23 42.58324 -4.11848 37224 ft 405 kts 275°
2026-04-17 08:23 42.59073 -4.19425 37216 ft 405 kts 275°
2026-04-17 08:24 42.59819 -4.26997 37220 ft 405 kts 275°
2026-04-17 08:24 42.60559 -4.34530 37213 ft 405 kts 275°
2026-04-17 08:25 42.61293 -4.42115 37210 ft 405 kts 275°
2026-04-17 08:25 42.62018 -4.49694 37031 ft 406 kts 275°
2026-04-17 08:25 42.62382 -4.53491 36767 ft 405 kts 275°
2026-04-17 08:26 42.62747 -4.57285 36505 ft 406 kts 275°
2026-04-17 08:26 42.63111 -4.61084 36272 ft 406 kts 274°
2026-04-17 08:26 42.63469 -4.64895 36183 ft 407 kts 274°
2026-04-17 08:27 42.64187 -4.72536 36205 ft 408 kts 274°
2026-04-17 08:27 42.64901 -4.80185 36211 ft 408 kts 274°
2026-04-17 08:28 42.65606 -4.87833 36204 ft 408 kts 274°
2026-04-17 08:28 42.66302 -4.95441 36218 ft 408 kts 274°
2026-04-17 08:29 42.66994 -5.03087 36201 ft 408 kts 274°
2026-04-17 08:29 42.67686 -5.10734 36201 ft 408 kts 274°
2026-04-17 08:30 42.68374 -5.18378 36207 ft 407 kts 274°
2026-04-17 08:30 42.68930 -5.24738 36202 ft 407 kts 274°
2026-04-17 08:31 42.69718 -5.33641 36207 ft 407 kts 273°
2026-04-17 08:31 42.70283 -5.40054 36197 ft 407 kts 273°
2026-04-17 08:32 42.70946 -5.47666 36201 ft 407 kts 273°
2026-04-17 08:32 42.71608 -5.55323 36201 ft 407 kts 273°
2026-04-17 08:33 42.72263 -5.62971 36221 ft 407 kts 273°
2026-04-17 08:33 42.72910 -5.70616 36217 ft 407 kts 273°
2026-04-17 08:34 42.73553 -5.78221 36216 ft 407 kts 273°
2026-04-17 08:34 42.74199 -5.85917 36208 ft 406 kts 273°
2026-04-17 08:35 42.74832 -5.93518 36203 ft 406 kts 273°
2026-04-17 08:35 42.75464 -6.01170 36198 ft 406 kts 273°
2026-04-17 08:36 42.76085 -6.08823 36187 ft 407 kts 273°
2026-04-17 08:36 42.76393 -6.12609 35949 ft 407 kts 272°
2026-04-17 08:36 42.76705 -6.16437 35695 ft 407 kts 272°
2026-04-17 08:36 42.77015 -6.20260 35448 ft 408 kts 272°
2026-04-17 08:37 42.77325 -6.24103 35195 ft 409 kts 272°
2026-04-17 08:37 42.77633 -6.27960 34952 ft 409 kts 272°
2026-04-17 08:37 42.77939 -6.31814 34710 ft 410 kts 272°
2026-04-17 08:37 42.78245 -6.35678 34469 ft 411 kts 272°
2026-04-17 08:38 42.78551 -6.39552 34218 ft 412 kts 272°
2026-04-17 08:38 42.78855 -6.43444 33961 ft 413 kts 272°
2026-04-17 08:38 42.79159 -6.47352 33696 ft 414 kts 272°
2026-04-17 08:38 42.79461 -6.51232 33428 ft 414 kts 272°
2026-04-17 08:39 42.79762 -6.55126 33157 ft 414 kts 272°
2026-04-17 08:39 42.80060 -6.58986 32901 ft 415 kts 272°
2026-04-17 08:39 42.80367 -6.62947 32636 ft 415 kts 272°
2026-04-17 08:39 42.80665 -6.66804 32157 ft 413 kts 272°
2026-04-17 08:40 42.80964 -6.70677 31565 ft 410 kts 272°
2026-04-17 08:40 42.81260 -6.74525 30964 ft 407 kts 272°
2026-04-17 08:40 42.81552 -6.78347 30387 ft 405 kts 272°
2026-04-17 08:40 42.81838 -6.82162 29761 ft 403 kts 272°
2026-04-17 08:41 42.82118 -6.85944 29190 ft 398 kts 271°
2026-04-17 08:41 42.82390 -6.89631 28630 ft 394 kts 271°
2026-04-17 08:41 42.82664 -6.93319 28077 ft 389 kts 272°
2026-04-17 08:41 42.82935 -6.96968 27541 ft 384 kts 272°
2026-04-17 08:42 42.83200 -7.00568 27006 ft 380 kts 272°
2026-04-17 08:42 42.83460 -7.04143 26480 ft 376 kts 272°
2026-04-17 08:42 42.83715 -7.07669 25969 ft 373 kts 272°
2026-04-17 08:42 42.83965 -7.11163 25474 ft 367 kts 272°
2026-04-17 08:43 42.84208 -7.14604 24991 ft 363 kts 272°
2026-04-17 08:43 42.84449 -7.18030 24511 ft 359 kts 272°
2026-04-17 08:43 42.84688 -7.21391 24062 ft 354 kts 272°
2026-04-17 08:43 42.84930 -7.24712 23586 ft 351 kts 273°
2026-04-17 08:44 42.85432 -7.27964 23127 ft 351 kts 283°
2026-04-17 08:44 42.86326 -7.31012 22710 ft 351 kts 292°
2026-04-17 08:44 42.87606 -7.33855 22299 ft 352 kts 301°
2026-04-17 08:44 42.89068 -7.36515 21868 ft 349 kts 301°
2026-04-17 08:45 42.90512 -7.39151 21442 ft 346 kts 301°
2026-04-17 08:45 42.91941 -7.41775 21013 ft 343 kts 301°
2026-04-17 08:45 42.93362 -7.44391 20585 ft 341 kts 301°
2026-04-17 08:45 42.94769 -7.46986 20154 ft 339 kts 301°
2026-04-17 08:46 42.96168 -7.49569 19719 ft 338 kts 301°
2026-04-17 08:46 42.97565 -7.52147 19274 ft 337 kts 301°
2026-04-17 08:46 42.98953 -7.54707 18843 ft 336 kts 301°
2026-04-17 08:46 43.00342 -7.57270 18362 ft 336 kts 301°
2026-04-17 08:47 43.01731 -7.59833 17906 ft 334 kts 301°
2026-04-17 08:47 43.03115 -7.62388 17459 ft 332 kts 301°
2026-04-17 08:47 43.04463 -7.64881 17030 ft 329 kts 301°
2026-04-17 08:47 43.05815 -7.67391 16598 ft 328 kts 301°
2026-04-17 08:48 43.07167 -7.69902 16167 ft 327 kts 301°
2026-04-17 08:48 43.08516 -7.72409 15737 ft 326 kts 301°
2026-04-17 08:48 43.09859 -7.74903 15319 ft 325 kts 302°
2026-04-17 08:48 43.11201 -7.77397 14882 ft 325 kts 302°
2026-04-17 08:49 43.12543 -7.79888 14455 ft 325 kts 302°
2026-04-17 08:49 43.13881 -7.82380 14018 ft 325 kts 302°
2026-04-17 08:49 43.15220 -7.84871 13555 ft 325 kts 302°
2026-04-17 08:49 43.16556 -7.87359 13107 ft 324 kts 302°
2026-04-17 08:50 43.17888 -7.89846 12662 ft 322 kts 302°
2026-04-17 08:50 43.19194 -7.92287 12218 ft 322 kts 302°
2026-04-17 08:50 43.20533 -7.94790 11763 ft 321 kts 302°
2026-04-17 08:50 43.21837 -7.97225 11316 ft 321 kts 302°
2026-04-17 08:51 43.23157 -7.99698 10859 ft 321 kts 302°
2026-04-17 08:51 43.24476 -8.02172 10580 ft 316 kts 302°
2026-04-17 08:51 43.25751 -8.04568 10455 ft 306 kts 302°
2026-04-17 08:51 43.26984 -8.06883 10309 ft 296 kts 302°
2026-04-17 08:52 43.28188 -8.09141 10161 ft 290 kts 302°
2026-04-17 08:52 43.29393 -8.11385 9842 ft 295 kts 305°
2026-04-17 08:52 43.30973 -8.13206 9413 ft 301 kts 329°
2026-04-17 08:52 43.33002 -8.13962 8985 ft 307 kts 356°
2026-04-17 08:53 43.35105 -8.13509 8643 ft 306 kts 15°
2026-04-17 08:53 43.37150 -8.12782 8007 ft 302 kts
2026-04-17 08:53 43.39213 -8.12426 7376 ft 298 kts
2026-04-17 08:53 43.41272 -8.12520 6762 ft 293 kts 351°
2026-04-17 08:54 43.43254 -8.13067 6100 ft 289 kts 341°
2026-04-17 08:54 43.45126 -8.14016 5465 ft 284 kts 333°
2026-04-17 08:54 43.46847 -8.15301 4885 ft 277 kts 324°
2026-04-17 08:54 43.48339 -8.16850 4576 ft 262 kts 317°
2026-04-17 08:55 43.49548 -8.18686 3814 ft 262 kts 295°
2026-04-17 08:55 43.49804 -8.21046 3513 ft 242 kts 255°
2026-04-17 08:55 43.48989 -8.22951 3362 ft 229 kts 221°
2026-04-17 08:55 43.47690 -8.24187 3069 ft 226 kts 208°
2026-04-17 08:56 43.46291 -8.25165 3002 ft 227 kts 205°
2026-04-17 08:56 43.44910 -8.26093 3003 ft 214 kts 206°
2026-04-17 08:56 43.43617 -8.26974 3005 ft 202 kts 204°
2026-04-17 08:56 43.42352 -8.27810 2894 ft 200 kts 207°
2026-04-17 08:57 43.41148 -8.28736 2690 ft 195 kts 210°
2026-04-17 08:57 43.39997 -8.29672 2422 ft 190 kts 211°
2026-04-17 08:57 43.38893 -8.30579 2168 ft 179 kts 211°
2026-04-17 08:57 43.37880 -8.31413 1949 ft 160 kts 211°
2026-04-17 08:58 43.36960 -8.32170 1719 ft 149 kts 211°
2026-04-17 08:58 43.36090 -8.32886 1516 ft 144 kts 211°
2026-04-17 08:58 43.35238 -8.33587 1321 ft 141 kts 210°
2026-04-17 08:58 43.34404 -8.34274 1125 ft 139 kts 210°
2026-04-17 08:59 43.33572 -8.34958 950 ft 139 kts 210°
2026-04-17 08:59 43.32754 -8.35631 759 ft 138 kts 210°
2026-04-17 08:59 43.31936 -8.36301 577 ft 136 kts 209°
2026-04-17 08:59 43.31127 -8.36974 384 ft 136 kts 210°
2026-04-17 09:00 43.30330 -8.37623 274 ft 124 kts 210°
2026-04-17 09:00 43.29820 -8.38042 273 ft 42 kts 210°
2026-04-17 09:00 43.29738 -8.38096 272 ft 5 kts 244°
2026-04-17 09:00 43.29754 -8.38096 273 ft 7 kts 18°
2026-04-17 09:01 43.29803 -8.38058 273 ft 8 kts 30°
2026-04-17 09:01 43.29867 -8.38008 273 ft 15 kts 30°
2026-04-17 09:01 43.29961 -8.38033 273 ft 14 kts 313°
2026-04-17 09:01 43.30045 -8.38075 274 ft 12 kts 359°
2026-04-17 09:02 43.30095 -8.38062 274 ft 6 kts 22°
2026-04-17 09:02 43.30133 -8.38027 274 ft 7 kts 34°
2026-04-17 09:02 43.30170 -8.38004 274 ft 4 kts 338°
2026-04-17 09:02 43.30187 -8.38031 276 ft 3 kts 308°
2026-04-17 09:03 43.30195 -8.38031 277 ft 0 kts 15°
2026-04-17 09:03 43.30205 -8.38026 276 ft 6 kts 22°
2026-04-17 09:03 43.30206 -8.38025 276 ft 0 kts 22°